User: anonymous
Location: Unspecified
(0.0000°N, 0.0000°E)
Time: 11:48:17
(UTC+02:00)
Language:

NOAA 12 - Orbit

View from above orbital plane
View from above orbital plane
View from above satellite
View from above satellite

Ground track
Ground track

The orbit data is extracted from the following two-line orbital elements,

1 21263U 91032A   14272.44304019  .00000102  00000-0  61376-4 0  4456
2 21263 098.6573 298.0505 0012606 294.8995 169.7060 14.25683045215414
Epoch (UTC): 29 September 2014 10:37:58
Eccentricity: 0.0012606
inclination: 98.6573°
perigee height: 797 km
apogee height: 815 km
right ascension of ascending node: 298.0505°
argument of perigee: 294.8995°
revolutions per day: 14.25683045
mean anomaly at epoch: 169.7060°
orbit number at epoch: 21541

The dashed part of the orbit path shows where the satellite is in the earth's shadow,  

DLR